Location: Fredericksburg
(30.2750°N, 98.8720°W)
Time: 05:51:52
(UTC-05:00)

Amateur Radio Satellites - All Passes

Search period start: 24 July 2017 05:21
Search period end: 25 July 2017 05:21
Location: Fredericksburg, 30.2750°N, 98.8720°W

Satellite Date Start Highest point End Downlink Frequencies (MHz)
Time Altitude Azimuth
AO-7 24 Jul 05:31:39 05:40:00 76° 289° (WNW) 05:48:16 .
CUBESAT XI-V 24 Jul 05:33:58 05:38:31 75° 258° (WSW) 05:43:07 437.345
Tancredo 1 24 Jul 05:40:45 05:43:06 21° 232° (SW) 05:45:26 437.200
PCSat 24 Jul 05:42:54 05:48:14 65° 112° (ESE) 05:53:36 145.827
nSIGHT-1 24 Jul 05:43:43 05:46:58 86° 221° (SW) 05:50:11 .
KKS-1 24 Jul 05:52:19 05:56:46 84° 256° (WSW) 06:01:17 437.445
JUGNU 24 Jul 05:53:24 05:56:20 14° 198° (SSW) 05:59:15 437.505
ITAMSAT 1 24 Jul 06:09:04 06:12:57 22° 292° (WNW) 06:16:49 435.822/435.867
STARS 24 Jul 06:25:25 06:29:50 89° 268° (W) 06:34:17 437.465
ISS 24 Jul 06:37:33 06:39:53 18° 233° (SW) 06:42:12 437.550
XW-2F 24 Jul 06:46:37 06:48:31 13° 95° (E) 06:50:26 145.980 - 146.000
SO-50 24 Jul 06:46:58 06:51:19 46° 114° (ESE) 06:55:39 436.795
SRMSAT 24 Jul 06:50:09 06:54:53 25° 189° (S) 06:59:37 437.500
YUBILEINY 24 Jul 06:52:10 07:00:43 56° 81° (E) 07:09:10 435.215
DOVE 4 24 Jul 07:12:02 07:17:17 77° 283° (WNW) 07:22:17 437.250
XW-2D 24 Jul 07:13:07 07:16:35 35° 99° (E) 07:20:04 145.860 - 145.880
XW-2B 24 Jul 07:23:00 07:26:38 47° 100° (E) 07:30:16 145.730 - 145.750
AO-7 24 Jul 07:28:12 07:31:21 13° 305° (NW) 07:34:29 .
PCSat 24 Jul 07:29:12 07:32:03 14° 307° (NW) 07:34:54 145.827
XW-2C 24 Jul 07:40:10 07:43:56 89° 102° (ESE) 07:47:42 145.795 - 145.815
CUTE-I 24 Jul 07:47:15 07:52:36 73° 102° (ESE) 07:57:55 437.470
HO-68 24 Jul 07:50:19 07:55:47 23° 96° (E) 08:01:14 435.675
NUDT-PHONESAT 24 Jul 07:52:26 07:56:06 86° 280° (W) 07:59:46 437.300
STRAND 1 24 Jul 07:55:25 08:00:18 45° 73° (ENE) 08:05:12 437.568
LilacSat-2 24 Jul 08:02:28 08:06:00 39° 285° (WNW) 08:09:33 437.200
KAITUO 1B 24 Jul 08:05:13 08:08:51 53° 284° (WNW) 08:12:29 145.475/437.950
XW-2F 24 Jul 08:19:27 08:22:37 26° 286° (WNW) 08:25:47 145.980 - 146.000
SO-50 24 Jul 08:29:24 08:31:57 15° 308° (NW) 08:34:32 436.795
AAUSAT CUBESAT 2 24 Jul 08:38:58 08:41:10 14° 94° (E) 08:43:20 437.432
SRMSAT 24 Jul 08:40:37 08:43:29 14° 198° (SSW) 08:46:22 437.500
CUBEBUG 2 24 Jul 08:40:58 08:44:35 28° 97° (E) 08:48:08 437.445
XW-2D 24 Jul 08:49:37 08:50:22 10° 291° (WNW) 08:51:08 145.860 - 145.880
YUBILEINY 24 Jul 08:50:16 08:56:49 24° 276° (W) 09:03:22 435.215
FO-29 24 Jul 09:01:31 09:06:19 18° 62° (ENE) 09:11:14 435.910
AO-73 24 Jul 09:03:36 09:05:15 12° 94° (E) 09:06:54 145.935
CUTE 1.7 + AOD 2 24 Jul 09:11:48 09:15:53 49° 285° (WNW) 09:19:59 437.475
SEEDS 24 Jul 09:25:58 09:30:05 54° 284° (WNW) 09:34:12 437.485
XW-2A 24 Jul 09:26:49 09:29:57 40° 284° (WNW) 09:33:05 145.665 - 145.685
CUTE-I 24 Jul 09:30:35 09:31:56 11° 296° (WNW) 09:33:18 437.470
STRAND 1 24 Jul 09:36:36 09:39:36 16° 265° (W) 09:42:37 437.568
HO-68 24 Jul 09:36:49 09:43:39 51° 290° (WNW) 09:50:28 435.675
UWE-3 24 Jul 09:40:41 09:44:51 88° 291° (WNW) 09:48:59 435.000/436.395/437.385
UNISAT 6 24 Jul 09:54:16 09:57:17 17° 70° (ENE) 10:00:16 437.425
ZACube-1 24 Jul 09:56:41 10:00:49 74° 100° (E) 10:04:55 437.345
PRISM 24 Jul 10:09:28 10:12:19 19° 70° (ENE) 10:15:12 437.425
AAUSAT CUBESAT 2 24 Jul 10:12:53 10:16:37 33° 286° (WNW) 10:20:22 437.432
CUBEBUG 2 24 Jul 10:18:15 10:20:56 17° 290° (WNW) 10:23:34 437.445
Oscar 11 24 Jul 10:24:33 10:28:52 77° 283° (WNW) 10:33:10 .
EO-88 24 Jul 10:32:15 10:34:01 13° 95° (E) 10:35:48 145.990 - 145.960
TIGRISAT 24 Jul 10:37:06 10:41:36 50° 75° (ENE) 10:46:04 435.000
AO-73 24 Jul 10:37:48 10:41:34 35° 286° (WNW) 10:45:20 145.935
FO-29 24 Jul 10:42:57 10:50:19 78° 257° (WSW) 10:58:13 435.910
NO-84 24 Jul 10:46:31 10:48:28 16° 122° (ESE) 10:50:28 435.350 FM
M-CUBED/EXP-1 PRIME 24 Jul 11:11:14 11:14:41 69° 71° (ENE) 11:18:26 437.505
DELFI C3 24 Jul 11:23:33 11:27:30 60° 284° (WNW) 11:31:26 145.870
UNISAT 6 24 Jul 11:29:23 11:33:39 35° 262° (W) 11:37:54 437.425
PRISM 24 Jul 11:44:04 11:47:23 24° 263° (W) 11:50:43 437.425
AIST 2D 24 Jul 11:53:55 11:57:10 38° 76° (ENE) 12:00:25 435.315
DUCHIFAT 1 24 Jul 12:03:32 12:06:24 18° 70° (ENE) 12:09:16 145.980
POLYITAN 1 24 Jul 12:04:06 12:07:30 24° 72° (ENE) 12:10:55 437.675
EO-88 24 Jul 12:04:38 12:07:39 25° 287° (WNW) 12:10:40 145.990 - 145.960
LO-87 24 Jul 12:11:33 12:14:47 31° 98° (E) 12:17:59 145.935 - 145.965
QB50P2 24 Jul 12:16:29 12:20:26 37° 74° (ENE) 12:24:22 145.880/145.840
TIGRISAT 24 Jul 12:16:50 12:18:26 12° 267° (W) 12:20:01 435.000
AO-85 24 Jul 12:21:46 12:23:57 14° 110° (ESE) 12:26:07 145.980
NO-84 24 Jul 12:23:27 12:25:43 20° 317° (NW) 12:28:07 435.350 FM
EO-79 24 Jul 12:28:39 12:32:45 48° 75° (ENE) 12:36:52 145.935-145.965
NANOSAT C BR1 24 Jul 12:29:20 12:33:21 43° 75° (ENE) 12:37:23 145.865
FO-29 24 Jul 12:35:41 12:36:15 10° 272° (W) 12:36:50 435.910
BUGSAT 1 24 Jul 12:37:18 12:38:41 11° 68° (ENE) 12:40:05 437.445
ESTCUBE 1 24 Jul 12:58:25 13:02:57 77° 102° (ESE) 13:07:28 437.505/2401.250
SPROUT 24 Jul 13:09:42 13:12:55 21° 96° (E) 13:16:06 437.525
DUCHIFAT 1 24 Jul 13:38:11 13:41:48 27° 262° (W) 13:45:27 145.980
BEESAT 3 24 Jul 13:38:21 13:42:15 59° 298° (WNW) 13:46:13 437.485
POLYITAN 1 24 Jul 13:39:56 13:43:09 21° 264° (W) 13:46:24 437.675
LO-87 24 Jul 13:47:11 13:47:50 10° 291° (WNW) 13:48:29 145.935 - 145.965
VELOX 1 24 Jul 13:47:44 13:52:06 53° 101° (E) 13:56:26 145.980
Oscar 19 24 Jul 13:51:25 13:56:05 37° 72° (ENE) 14:00:45 437.125/150
QB50P2 24 Jul 13:54:18 13:56:17 13° 266° (W) 13:58:15 145.880/145.840
DX 1 24 Jul 13:56:58 13:59:52 17° 96° (E) 14:02:46 434.975-435.025
AO-85 24 Jul 14:00:25 14:04:03 31° 301° (WNW) 14:07:35 145.980
NANOSAT C BR1 24 Jul 14:08:02 14:09:11 11° 266° (W) 14:10:19 145.865
BUGSAT 1 24 Jul 14:09:32 14:13:35 44° 260° (W) 14:17:39 437.445
Gurwin Techsat 1B 24 Jul 14:11:06 14:15:55 37° 72° (ENE) 14:20:46 435.225
BEESAT 2 24 Jul 14:16:18 14:20:13 73° 297° (WNW) 14:24:15 435.950
AO-7 24 Jul 14:35:48 14:40:23 16° 57° (ENE) 14:44:57 .
PCSat 24 Jul 14:37:58 14:41:20 16° 54° (NE) 14:44:41 145.827
UKube-1 24 Jul 14:40:12 14:44:13 37° 99° (E) 14:48:13 .
SPROUT 24 Jul 14:45:18 14:48:41 23° 288° (WNW) 14:52:02 437.525
50 SAT 24 Jul 14:54:22 14:57:37 40° 285° (WNW) 15:00:50 437.505
O/OREOS (USA 219) 24 Jul 15:20:48 15:24:23 24° 102° (ESE) 15:27:57 437.305
VELOX 1 24 Jul 15:27:04 15:28:00 11° 293° (WNW) 15:28:57 145.980
Oscar 19 24 Jul 15:31:52 15:35:25 19° 264° (W) 15:39:00 437.125/150
DX 1 24 Jul 15:32:12 15:36:01 30° 288° (WNW) 15:39:49 434.975-435.025
ITAMSAT 1 24 Jul 15:41:29 15:45:59 30° 70° (ENE) 15:50:30 435.822/435.867
RS-15 24 Jul 15:47:54 15:59:08 48° 108° (ESE) 16:10:38 29.354- 29.394
Gurwin Techsat 1B 24 Jul 15:51:59 15:55:52 21° 264° (W) 15:59:47 435.225
BEESAT 24 Jul 15:57:10 16:01:00 24° 97° (E) 16:04:51 436.000
ITUPSAT 1 24 Jul 16:09:33 16:13:50 33° 99° (E) 16:18:05 437.325
UKube-1 24 Jul 16:17:36 16:19:52 14° 292° (WNW) 16:22:08 .
PCSat 24 Jul 16:19:44 16:25:02 55° 249° (WSW) 16:30:17 145.827
AO-7 24 Jul 16:23:38 16:31:59 90° 73° (ENE) 16:40:24 .
O/OREOS (USA 219) 24 Jul 17:00:06 17:03:38 22° 295° (WNW) 17:07:10 437.305
MOZHAYETS 4 24 Jul 17:03:15 17:07:48 74° 284° (WNW) 17:12:20
SO-50 24 Jul 17:03:32 17:08:04 76° 245° (WSW) 17:12:39 436.795
ITAMSAT 1 24 Jul 17:21:08 17:25:21 25° 263° (W) 17:29:35 435.822/435.867
BEESAT 24 Jul 17:34:47 17:38:38 25° 290° (WNW) 17:42:28 436.000
CUBESAT XI-V 24 Jul 17:36:11 17:40:36 41° 99° (E) 17:45:01 437.345
ITUPSAT 1 24 Jul 17:48:04 17:51:22 19° 291° (WNW) 17:54:39 437.325
KKS-1 24 Jul 17:49:22 17:53:13 28° 98° (E) 17:57:03 437.445
RS-15 24 Jul 18:00:07 18:11:33 46° 306° (NW) 18:23:17 29.354- 29.394
XW-2B 24 Jul 18:01:40 18:02:06 10° 69° (ENE) 18:02:31 145.730 - 145.750
DOVE 4 24 Jul 18:10:58 18:15:35 55° 75° (ENE) 18:20:30 437.250
XW-2C 24 Jul 18:16:44 18:19:16 18° 72° (ENE) 18:21:48 145.795 - 145.815
STARS 24 Jul 18:20:59 18:24:38 25° 97° (E) 18:28:15 437.465
AO-7 24 Jul 18:21:48 18:25:27 13° 266° (W) 18:29:07 .
NUDT-PHONESAT 24 Jul 18:26:59 18:29:23 17° 72° (ENE) 18:31:47 437.300
LilacSat-2 24 Jul 18:38:22 18:41:52 37° 75° (ENE) 18:45:21 437.200
KAITUO 1B 24 Jul 18:39:44 18:42:50 26° 73° (ENE) 18:45:55 145.475/437.950
XW-2F 24 Jul 18:53:49 18:57:27 55° 77° (ENE) 19:01:06 145.980 - 146.000
NO-84 24 Jul 19:00:35 19:03:17 17° 41° (NE) 19:06:05 435.350 FM
CUTE-I 24 Jul 19:03:08 19:08:26 67° 75° (ENE) 19:13:46 437.470
CUBESAT XI-V 24 Jul 19:15:00 19:17:34 15° 292° (WNW) 19:20:08 437.345
XW-2D 24 Jul 19:22:10 19:25:48 48° 260° (W) 19:29:27 145.860 - 145.880
KKS-1 24 Jul 19:26:22 19:29:31 19° 290° (WNW) 19:32:40 437.445
XW-2B 24 Jul 19:32:24 19:35:52 36° 261° (W) 19:39:21 145.730 - 145.750
CUBEBUG 2 24 Jul 19:34:17 19:36:45 14° 69° (ENE) 19:39:11 437.445
YUBILEINY 24 Jul 19:45:06 19:53:53 77° 93° (E) 20:02:42 435.215
XW-2C 24 Jul 19:50:24 19:53:16 21° 264° (W) 19:56:08 145.795 - 145.815
DOVE 4 24 Jul 19:52:05 19:53:36 11° 269° (W) 19:55:07 437.250
XW-2A 24 Jul 19:52:43 19:55:19 21° 73° (ENE) 19:57:55 145.665 - 145.685
STARS 24 Jul 19:57:30 20:00:46 21° 290° (WNW) 20:04:01 437.465
HO-68 24 Jul 19:58:13 20:05:19 68° 73° (ENE) 20:12:26 435.675
CUTE 1.7 + AOD 2 24 Jul 19:58:16 20:02:20 51° 75° (ENE) 20:06:24 437.475
NUDT-PHONESAT 24 Jul 20:00:15 20:03:04 21° 263° (W) 20:05:53 437.300
ISS 24 Jul 20:01:45 20:03:05 12° 125° (SE) 20:04:24 437.550
SEEDS 24 Jul 20:11:35 20:15:31 44° 75° (ENE) 20:19:28 437.485
STRAND 1 24 Jul 20:12:15 20:16:24 25° 97° (E) 20:20:32 437.568
KAITUO 1B 24 Jul 20:14:59 20:16:47 13° 265° (W) 20:18:36 145.475/437.950
RS-15 24 Jul 20:23:57 20:28:28 12° 335° (NNW) 20:33:00 29.354- 29.394
Tancredo 1 24 Jul 20:29:27 20:32:21 67° 315° (NW) 20:35:16 437.200
UWE-3 24 Jul 20:31:27 20:35:39 36° 74° (ENE) 20:39:48 435.000/436.395/437.385
NO-84 24 Jul 20:36:59 20:40:57 48° 234° (SW) 20:45:05 435.350 FM
nSIGHT-1 24 Jul 20:42:28 20:45:31 42° 131° (SE) 20:48:35 .
ZACube-1 24 Jul 20:46:43 20:50:32 28° 73° (ENE) 20:54:17 437.345
CUTE-I 24 Jul 20:47:34 20:48:49 11° 267° (W) 20:50:03 437.470
AAUSAT CUBESAT 2 24 Jul 20:56:25 21:00:29 70° 77° (ENE) 21:04:34 437.432
CUBEBUG 2 24 Jul 21:08:25 21:12:56 44° 261° (W) 21:17:24 437.445
Oscar 11 24 Jul 21:13:31 21:17:27 37° 74° (ENE) 21:21:25 .
XW-2A 24 Jul 21:26:14 21:27:58 13° 265° (W) 21:29:42 145.665 - 145.685
AO-73 24 Jul 21:26:28 21:30:55 78° 78° (ENE) 21:35:18 145.935
ISS 24 Jul 21:36:12 21:39:15 37° 318° (NW) 21:42:18 437.550
YUBILEINY 24 Jul 21:46:01 21:51:26 17° 289° (WNW) 21:56:53 435.215
HO-68 24 Jul 21:49:03 21:53:24 17° 265° (W) 21:57:47 435.675
STRAND 1 24 Jul 21:51:09 21:55:28 28° 289° (WNW) 21:59:46 437.568
FO-29 24 Jul 22:01:58 22:06:47 21° 92° (E) 22:11:12 435.910
BEESAT 3 24 Jul 22:01:59 22:03:52 13° 53° (NE) 22:05:45 437.485
DELFI C3 24 Jul 22:03:13 22:06:40 30° 74° (ENE) 22:10:08 145.870
UWE-3 24 Jul 22:09:21 22:12:07 16° 265° (W) 22:14:50 435.000/436.395/437.385
nSIGHT-1 24 Jul 22:20:17 22:22:03 14° 325° (NW) 22:23:50 .
ZACube-1 24 Jul 22:23:32 22:26:44 19° 264° (W) 22:29:52 437.345
JUGNU 24 Jul 22:24:20 22:27:11 14° 162° (SSE) 22:30:02 437.505
AO-85 24 Jul 22:35:47 22:39:46 36° 60° (ENE) 22:44:03 145.980
EO-88 24 Jul 22:35:52 22:39:22 49° 76° (ENE) 22:42:54 145.990 - 145.960
TIGRISAT 24 Jul 22:35:53 22:38:20 15° 95° (E) 22:40:46 435.000
BEESAT 2 24 Jul 22:41:13 22:42:42 12° 52° (NE) 22:44:12 435.950
Oscar 11 24 Jul 22:51:39 22:53:40 13° 266° (W) 22:55:40 .
M-CUBED/EXP-1 PRIME 24 Jul 22:57:53 22:58:25 10° 97° (E) 22:58:58 437.505
UNISAT 6 24 Jul 23:26:28 23:30:46 77° 100° (E) 23:35:00 437.425
PRISM 24 Jul 23:29:57 23:34:06 68° 101° (ESE) 23:38:14 437.425
BEESAT 3 24 Jul 23:37:53 23:41:35 39° 247° (WSW) 23:45:13 437.485
DELFI C3 24 Jul 23:39:36 23:41:26 13° 266° (W) 23:43:18 145.870
FO-29 24 Jul 23:45:32 23:52:10 50° 289° (WNW) 23:58:01 435.910
ESTCUBE 1 24 Jul 23:52:20 23:56:20 33° 73° (ENE) 00:00:21 437.505/2401.250
JUGNU 25 Jul 00:10:51 00:15:39 25° 170° (S) 00:20:27 437.505
TIGRISAT 25 Jul 00:11:15 00:15:03 31° 287° (WNW) 00:18:48 435.000
LO-87 25 Jul 00:14:25 00:18:00 64° 260° (W) 00:21:37 145.935 - 145.965
BEESAT 2 25 Jul 00:16:48 00:20:41 47° 246° (WSW) 00:24:30 435.950
AO-85 25 Jul 00:17:09 00:19:56 16° 250° (WSW) 00:22:49 145.980
EO-79 25 Jul 00:21:01 00:22:37 12° 94° (E) 00:24:14 145.935-145.965
NANOSAT C BR1 25 Jul 00:22:00 00:22:48 10° 93° (E) 00:23:36 145.865
M-CUBED/EXP-1 PRIME 25 Jul 00:28:27 00:33:01 61° 288° (WNW) 00:37:36 437.505
VELOX 1 25 Jul 00:39:47 00:43:14 23° 71° (ENE) 00:46:43 145.980
AIST 2D 25 Jul 00:57:08 01:00:35 68° 283° (WNW) 01:04:03 435.315
RS-15 25 Jul 00:57:40 01:08:10 33° 48° (NE) 01:18:07 29.354- 29.394
SRMSAT 25 Jul 01:13:03 01:15:56 14° 162° (SSE) 01:18:49 437.500
50 SAT 25 Jul 01:20:25 01:23:04 22° 73° (ENE) 01:25:44 437.505
DUCHIFAT 1 25 Jul 01:27:02 01:31:12 70° 103° (ESE) 01:35:19 145.980
POLYITAN 1 25 Jul 01:29:09 01:33:22 83° 281° (W) 01:37:31 437.675
UKube-1 25 Jul 01:30:12 01:32:46 16° 69° (ENE) 01:35:19 .
ESTCUBE 1 25 Jul 01:30:26 01:33:09 16° 265° (W) 01:35:52 437.505/2401.250
SPROUT 25 Jul 01:31:36 01:35:51 66° 259° (WSW) 01:40:08 437.525
O/OREOS (USA 219) 25 Jul 01:36:29 01:39:40 19° 64° (ENE) 01:42:50 437.305
QB50P2 25 Jul 01:42:19 01:46:22 49° 285° (WNW) 01:50:25 145.880/145.840
EO-79 25 Jul 01:54:35 01:58:29 38° 286° (WNW) 02:02:21 145.935-145.965
NANOSAT C BR1 25 Jul 01:54:41 01:58:39 42° 285° (WNW) 02:02:35 145.865
BUGSAT 1 25 Jul 01:56:59 02:00:47 37° 99° (E) 02:04:31 437.445
JUGNU 25 Jul 01:59:03 02:04:12 30° 180° (S) 02:09:21 437.505
Oscar 19 25 Jul 02:09:16 02:13:08 21° 96° (E) 02:16:59 437.125/150
VELOX 1 25 Jul 02:16:01 02:19:31 23° 263° (W) 02:23:02 145.980
DX 1 25 Jul 02:21:04 02:25:24 74° 258° (WSW) 02:29:45 434.975-435.025
Gurwin Techsat 1B 25 Jul 02:33:33 02:37:44 23° 96° (E) 02:41:54 435.225
50 SAT 25 Jul 02:54:11 02:55:43 13° 265° (W) 02:57:17 437.505
BEESAT 25 Jul 02:58:58 03:01:46 16° 68° (ENE) 03:04:32 436.000
SRMSAT 25 Jul 02:59:47 03:04:33 25° 171° (S) 03:09:18 437.500
UKube-1 25 Jul 03:04:34 03:08:26 33° 261° (W) 03:12:21 .
RS-15 25 Jul 03:09:37 03:21:18 65° 249° (WSW) 03:32:22 29.354- 29.394
ITUPSAT 1 25 Jul 03:11:13 03:14:46 21° 70° (ENE) 03:18:20 437.325
O/OREOS (USA 219) 25 Jul 03:15:08 03:19:01 29° 257° (WSW) 03:22:54 437.305
BUGSAT 1 25 Jul 03:34:12 03:35:43 12° 292° (WNW) 03:37:15 437.445
Oscar 19 25 Jul 03:47:48 03:52:25 34° 288° (WNW) 03:57:03 437.125/150
JUGNU 25 Jul 03:48:02 03:52:45 24° 190° (S) 03:57:25 437.505
MOZHAYETS 4 25 Jul 03:59:05 04:03:31 51° 75° (ENE) 04:07:57
ITAMSAT 1 25 Jul 04:00:59 04:04:15 17° 95° (E) 04:07:30 435.822/435.867
ISS 25 Jul 04:09:14 04:11:07 14° 36° (NE) 04:12:59 437.550
Gurwin Techsat 1B 25 Jul 04:12:56 04:17:37 32° 289° (WNW) 04:22:17 435.225
AO-7 25 Jul 04:32:11 04:40:04 44° 102° (ESE) 04:47:52 .
Tancredo 1 25 Jul 04:32:27 04:35:25 86° 49° (NE) 04:38:22 437.200
CUBESAT XI-V 25 Jul 04:34:29 04:37:54 21° 70° (ENE) 04:41:20 437.345
BEESAT 25 Jul 04:34:38 04:39:07 41° 260° (W) 04:43:38 436.000
KKS-1 25 Jul 04:43:13 04:45:27 14° 68° (ENE) 04:47:43 437.445
SRMSAT 25 Jul 04:48:09 04:53:15 30° 181° (S) 04:58:19 437.500
ITUPSAT 1 25 Jul 04:48:11 04:52:21 30° 262° (W) 04:56:33 437.325
nSIGHT-1 25 Jul 04:50:34 04:53:37 38° 43° (NE) 04:56:38 .
STARS 25 Jul 05:13:53 05:15:27 12° 67° (ENE) 05:17:03 437.465
